EST,Max TemperatureF,Mean TemperatureF,Min TemperatureF,Max Dew PointF,MeanDew PointF,Min DewpointF,Max Humidity, Mean Humidity, Min Humidity, Max Sea Level PressureIn, Mean Sea Level PressureIn, Min Sea Level PressureIn, Max VisibilityMiles, Mean VisibilityMiles, Min VisibilityMiles, Max Wind SpeedMPH, Mean Wind SpeedMPH, Max Gust SpeedMPH,PrecipitationIn, CloudCover, Events, WindDirDegrees
2011-11-1,62,46,30,39,34,28,100,75,34,30.35,30.29,30.24,10,9,4,6,1,,0.00,0,,139
2011-11-2,64,48,33,39,36,32,100,67,32,30.44,30.36,30.29,10,10,7,6,1,,0.00,0,,185
2011-11-3,64,48,33,52,39,34,100,76,42,30.29,30.13,29.93,10,9,5,15,2,21,0.02,1,,194
2011-11-4,60,54,48,52,48,41,100,83,48,29.98,29.87,29.80,10,9,0,20,5,25,0.17,6,,14
2011-11-5,53,44,35,37,28,19,93,55,26,30.41,30.32,30.16,10,10,10,12,4,17,0.00,0,,60
2011-11-6,62,46,30,43,35,27,93,69,42,30.52,30.45,30.39,10,10,10,7,1,,0.00,3,,189
2011-11-7,69,51,33,46,41,34,100,76,37,30.43,30.37,30.30,10,9,4,7,0,,0.00,0,,188
2011-11-8,69,52,35,46,44,36,100,75,40,30.33,30.26,30.20,10,10,5,5,0,,0.00,0,,62
2011-11-9,68,52,37,52,47,37,100,83,56,30.21,30.12,30.02,10,8,2,9,1,,0.00,1,,203
2011-11-10,59,50,42,54,42,27,100,70,43,29.98,29.93,29.89,10,10,7,17,4,28,0.00,5,,300
2011-11-11,51,43,35,21,18,14,56,37,26,30.17,30.08,30.00,10,10,10,15,9,24,0.00,0,,276
2011-11-12,64,45,26,28,25,21,86,51,24,30.27,30.22,30.18,10,10,10,13,2,17,0.00,0,,200
2011-11-13,60,50,39,41,32,27,81,53,29,30.23,30.18,30.10,10,10,10,13,2,16,0.00,1,,216
2011-11-14,73,58,42,52,47,37,93,69,46,30.13,30.07,30.00,10,10,10,16,4,25,0.00,0,,222
2011-11-15,73,64,55,61,57,54,94,74,57,30.00,29.97,29.94,10,10,10,10,5,,0.00,5,,212
2011-11-16,69,63,55,66,62,52,100,94,77,29.97,29.85,29.72,10,7,1,10,3,18,0.20,7,,224
2011-11-17,55,46,37,52,37,19,100,70,39,30.25,30.02,29.89,10,10,7,16,4,26,0.07,6,,314
2011-11-18,48,36,24,21,15,10,80,46,22,30.51,30.43,30.31,10,10,10,7,2,,0.00,0,,162
2011-11-19,55,39,23,39,26,19,93,63,35,30.46,30.40,30.35,10,10,10,6,1,,0.00,4,,227
2011-11-20,71,56,41,57,48,36,100,76,55,30.36,30.30,30.24,10,10,7,14,3,18,0.00,4,,219
2011-11-21,75,65,55,61,56,54,100,84,50,30.28,30.23,30.19,10,6,0,10,3,,0.00,4,,250
2011-11-22,68,60,53,61,57,54,100,89,73,30.21,30.13,29.98,10,10,4,10,1,,0.00,5,,144
2011-11-23,64,56,46,64,46,32,100,67,44,30.16,29.94,29.79,10,10,2,21,10,32,0.14,3,,280
2011-11-24,66,50,35,36,31,27,81,50,23,30.38,30.31,30.19,10,10,10,7,3,16,0.00,0,,241
2011-11-25,71,50,28,36,28,18,100,52,14,30.37,30.32,30.25,10,10,10,15,2,22,0.00,0,,214
2011-11-26,66,48,30,48,39,28,93,68,46,30.35,30.29,30.24,10,10,10,17,2,22,0.00,1,,212
2011-11-27,68,60,53,55,50,48,94,70,49,30.22,30.14,30.05,10,10,7,18,4,28,0.00,6,,185
2011-11-28,68,62,57,63,58,55,100,87,68,30.04,29.94,29.77,10,8,2,13,5,24,0.48,8,,109
2011-11-29,50,44,35,50,40,34,100,91,70,29.84,29.80,29.75,10,10,5,14,6,17,0.09,6,,202
2011-11-30,50,42,33,36,32,27,100,72,50,30.06,29.93,29.82,10,10,10,16,4,24,0.00,4,,284